User: anonymous
Location: Unspecified
(0.0000°N, 0.0000°E)
Time: 14:43:06
(UTC+02:00)
Language:

Delta 2 Rocket - Orbit

View from above orbital plane
View from above orbital plane
View from above satellite
View from above satellite

Ground track
Ground track

The orbit data is extracted from the following two-line orbital elements,

1 20453U 90008B   14209.41073807  .00002158  00000-0  14273-3 0   321
2 20453 035.6250 276.4257 0323502 079.3679 284.3289 14.73606139291868
Epoch (UTC): 28 July 2014 09:51:27
Eccentricity: 0.0323502
inclination: 35.6250°
perigee height: 422 km
apogee height: 877 km
right ascension of ascending node: 276.4257°
argument of perigee: 79.3679°
revolutions per day: 14.73606139
mean anomaly at epoch: 284.3289°
orbit number at epoch: 29186

The dashed part of the orbit path shows where the satellite is in the earth's shadow,  

DLR